| time (UTC) | temp F | wind direction | speed MPH | gust MPH | rain 1hr in | rain 24hr in | rain mn in | humidity % | barometer mb |
| 20260901104544 | 55 | 184 | 0.0 | 0.0 | 0.00 | 0.00 | 0.00 | 98 | 1008.6 |
| 20260901103053 | 55 | 184 | 0.0 | 0.0 | 0.00 | 0.00 | 0.00 | 98 | 1008.6 |
| 20260901101545 | 55 | 184 | 0.0 | 0.0 | 0.00 | 0.00 | 0.00 | 98 | 1008.6 |
| 20260901100045 | 55 | 184 | 0.0 | 0.0 | 0.00 | 0.00 | 0.00 | 98 | 1008.6 |
| 20260901094542 | 55 | 184 | 0.0 | 0.0 | 0.00 | 0.00 | 0.00 | 98 | 1008.4 |
| 20260901093038 | 55 | 184 | 0.0 | 0.0 | 0.00 | 0.00 | 0.00 | 98 | 1008.4 |
| 20260901091537 | 55 | 184 | 0.0 | 0.0 | 0.00 | 0.00 | 0.00 | 98 | 1008.6 |
| 20260901090035 | 56 | 184 | 0.0 | 0.0 | 0.00 | 0.00 | 0.00 | 98 | 1008.6 |
| 20260901084537 | 56 | 184 | 0.0 | 0.0 | 0.00 | 0.00 | 0.00 | 98 | 1008.7 |
| 20260901083032 | 56 | 184 | 0.0 | 0.0 | 0.00 | 0.00 | 0.00 | 98 | 1008.8 |
| 20260901081530 | 56 | 184 | 0.0 | 0.0 | 0.00 | 0.00 | 0.00 | 98 | 1009.0 |
| 20260901080030 | 56 | 184 | 0.0 | 0.0 | 0.00 | 0.00 | 0.00 | 98 | 1009.0 |
| 20260901074528 | 56 | 184 | 0.0 | 0.0 | 0.00 | 0.00 | 0.00 | 98 | 1008.8 |
| 20260901073037 | 56 | 184 | 0.0 | 0.0 | 0.00 | 0.00 | 0.00 | 98 | 1008.8 |
| 20260901071526 | 56 | 184 | 0.0 | 0.0 | 0.00 | 0.00 | 0.00 | 97 | 1008.8 |
| 20260901070023 | 57 | 184 | 0.0 | 0.0 | 0.00 | 0.00 | 0.00 | 98 | 1008.5 |
| 20260901064521 | 57 | 184 | 0.0 | 0.0 | 0.00 | 0.00 | 0.00 | 97 | 1008.7 |
| 20260901063023 | 57 | 184 | 0.0 | 0.0 | 0.00 | 0.00 | 0.00 | 97 | 1008.8 |
| 20260901061517 | 57 | 184 | 0.0 | 0.0 | 0.00 | 0.00 | 0.00 | 97 | 1009.0 |
| 20260901060033 | 58 | 184 | 0.0 | 0.0 | 0.00 | 0.00 | 0.00 | 97 | 1009.0 |
| 20260901054515 | 58 | 184 | 0.0 | 0.0 | 0.00 | 0.00 | 0.33 | 97 | 1009.0 |
| 20260901053010 | 59 | 184 | 0.0 | 0.0 | 0.00 | 0.00 | 0.33 | 97 | 1008.9 |
| 20260901051509 | 59 | 185 | 0.0 | 0.0 | 0.00 | 0.00 | 0.33 | 97 | 1008.7 |
| 20260901050008 | 59 | 185 | 0.0 | 0.0 | 0.00 | 0.00 | 0.33 | 97 | 1008.8 |
| 20260901044507 | 59 | 185 | 0.0 | 0.0 | 0.00 | 0.00 | 0.33 | 97 | 1008.8 |
| 20260901043001 | 60 | 185 | 0.0 | 0.0 | 0.00 | 0.00 | 0.33 | 97 | 1008.8 |
| 20260901041620 | 60 | 183 | 0.0 | 0.0 | 0.00 | 0.00 | 0.33 | 97 | 1008.9 |
| 20260901040135 | 61 | 183 | 0.0 | 0.0 | 0.00 | 0.00 | 0.33 | 97 | 1008.9 |
| 20260901034557 | 61 | 183 | 0.0 | 0.0 | 0.00 | 0.00 | 0.33 | 97 | 1008.9 |
| 20260901033053 | 62 | 183 | 0.0 | 0.0 | 0.00 | 0.00 | 0.33 | 97 | 1008.8 |
| 20260901031554 | 63 | 183 | 0.0 | 0.0 | 0.00 | 0.00 | 0.33 | 96 | 1008.7 |
| 20260901030055 | 64 | 183 | 0.0 | 0.0 | 0.00 | 0.00 | 0.33 | 97 | 1008.9 |
| 20260901024554 | 65 | 181 | 0.0 | 0.0 | 0.00 | 0.00 | 0.33 | 97 | 1008.7 |
| 20260901023052 | 65 | 182 | 0.0 | 0.0 | 0.00 | 0.00 | 0.33 | 97 | 1008.5 |
| 20260901021548 | 65 | 182 | 0.0 | 0.0 | 0.00 | 0.00 | 0.33 | 97 | 1008.7 |
| 20260901020048 | 66 | 182 | 0.0 | 0.0 | 0.00 | 0.00 | 0.33 | 97 | 1008.7 |
| 20260901014547 | 66 | 182 | 0.0 | 0.0 | 0.00 | 0.00 | 0.33 | 97 | 1008.7 |
| 20260901013047 | 66 | 183 | 0.0 | 0.0 | 0.00 | 0.00 | 0.33 | 97 | 1008.3 |
| 20260901011544 | 67 | 182 | 0.0 | 0.0 | 0.00 | 0.00 | 0.33 | 97 | 1008.3 |
| 20260901010053 | 68 | 122 | 1.0 | 0.0 | 0.00 | 0.00 | 0.33 | 97 | 1008.1 |
| 20260901004543 | 69 | 121 | 1.0 | 0.0 | 0.00 | 0.00 | 0.33 | 97 | 1007.8 |
| 20260901003018 | 69 | 121 | 0.0 | 0.0 | 0.00 | 0.00 | 0.33 | 97 | 1007.6 |
| 20260901001522 | 69 | 120 | 1.0 | 0.0 | 0.00 | 0.00 | 0.33 | 97 | 1007.5 |
| 20260901000010 | 70 | 120 | 0.0 | 0.0 | 0.00 | 0.00 | 0.33 | 97 | 1007.5 |
| 20260831234509 | 71 | 120 | 0.0 | 0.0 | 0.00 | 0.00 | 0.33 | 97 | 1007.4 |
| 20260831233014 | 71 | 120 | 0.0 | 0.0 | 0.00 | 0.00 | 0.33 | 97 | 1007.5 |
| 20260831231516 | 71 | 120 | 0.0 | 0.0 | 0.00 | 0.00 | 0.33 | 98 | 1007.3 |
| 20260831230038 | 72 | 120 | 0.0 | 0.0 | 0.00 | 0.00 | 0.33 | 98 | 1007.5 |
| 20260831224536 | 71 | 120 | 1.0 | 0.0 | 0.00 | 0.00 | 0.33 | 98 | 1007.6 |
| 20260831223033 | 71 | 119 | 1.0 | 0.0 | 0.00 | 0.00 | 0.33 | 99 | 1007.6 |
| 20260831221536 | 70 | 117 | 2.0 | 0.0 | 0.00 | 0.00 | 0.33 | 99 | 1007.5 |
| 20260831220029 | 70 | 118 | 2.0 | 0.0 | 0.00 | 0.00 | 0.33 | 98 | 1007.4 |
| 20260831214527 | 70 | 117 | 1.0 | 0.0 | 0.00 | 0.00 | 0.33 | 99 | 1007.5 |
| 20260831213022 | 69 | 116 | 0.0 | 0.0 | 0.00 | 0.00 | 0.33 | 98 | 1007.5 |
| 20260831211520 | 69 | 116 | 0.0 | 0.0 | 0.00 | 0.00 | 0.33 | 98 | 1007.4 |
| 20260831210019 | 68 | 116 | 0.0 | 0.0 | 0.00 | 0.00 | 0.33 | 98 | 1007.5 |
| 20260831204517 | 68 | 116 | 0.0 | 0.0 | 0.00 | 0.00 | 0.33 | 98 | 1007.4 |
| 20260831203116 | 68 | 116 | 0.0 | 0.0 | 0.00 | 0.00 | 0.33 | 98 | 1007.2 |
| 20260831201546 | 68 | 116 | 0.0 | 0.0 | 0.00 | 0.00 | 0.33 | 98 | 1007.2 |
| 20260831200055 | 67 | 116 | 0.0 | 0.0 | 0.00 | 0.00 | 0.33 | 98 | 1007.2 |
| 20260831194558 | 67 | 116 | 0.0 | 0.0 | 0.00 | 0.00 | 0.33 | 98 | 1007.3 |
| 20260831193040 | 67 | 116 | 0.0 | 0.0 | 0.00 | 0.00 | 0.33 | 98 | 1007.2 |
| 20260831191539 | 67 | 116 | 0.0 | 0.0 | 0.00 | 0.00 | 0.33 | 98 | 1007.3 |
| 20260831190051 | 67 | 116 | 0.0 | 0.0 | 0.00 | 0.00 | 0.33 | 98 | 1007.4 |
| 20260831184536 | 67 | 116 | 0.0 | 0.0 | 0.00 | 0.00 | 0.33 | 98 | 1007.4 |
| 20260831183035 | 66 | 116 | 0.0 | 0.0 | 0.00 | 0.00 | 0.33 | 98 | 1007.3 |
| 20260831181534 | 66 | 116 | 0.0 | 0.0 | 0.00 | 0.00 | 0.33 | 98 | 1007.3 |
| 20260831180034 | 66 | 115 | 0.0 | 0.0 | 0.00 | 0.00 | 0.33 | 98 | 1007.5 |
| 20260831174532 | 66 | 116 | 0.0 | 0.0 | 0.00 | 0.00 | 0.33 | 98 | 1007.5 |
| 20260831173030 | 66 | 116 | 0.0 | 0.0 | 0.00 | 0.00 | 0.33 | 98 | 1007.8 |
| 20260831171529 | 65 | 115 | 1.0 | 0.0 | 0.00 | 0.00 | 0.33 | 98 | 1007.8 |
| 20260831170037 | 65 | 115 | 2.0 | 0.0 | 0.00 | 0.00 | 0.33 | 98 | 1007.5 |
| 20260831164558 | 65 | 111 | 1.0 | 0.0 | 0.00 | 0.00 | 0.33 | 98 | 1007.7 |
| 20260831163057 | 65 | 125 | 1.0 | 0.0 | 0.00 | 0.00 | 0.33 | 98 | 1007.6 |
| 20260831161554 | 65 | 96 | 1.0 | 0.0 | 0.00 | 0.00 | 0.33 | 98 | 1007.6 |
| 20260831160053 | 65 | 94 | 1.0 | 0.0 | 0.00 | 0.00 | 0.33 | 98 | 1007.5 |
| 20260831154556 | 65 | 96 | 1.0 | 0.0 | 0.00 | 0.00 | 0.33 | 98 | 1007.4 |
| 20260831153055 | 65 | 96 | 1.0 | 0.0 | 0.00 | 0.00 | 0.33 | 98 | 1007.6 |
| 20260831151550 | 64 | 94 | 1.0 | 0.0 | 0.00 | 0.00 | 0.33 | 98 | 1007.2 |
| 20260831150047 | 64 | 100 | 2.0 | 0.0 | 0.00 | 0.00 | 0.33 | 98 | 1007.3 |
| 20260831144546 | 64 | 101 | 1.0 | 0.0 | 0.00 | 0.00 | 0.33 | 98 | 1007.3 |
| 20260831143045 | 64 | 100 | 1.0 | 0.0 | 0.00 | 0.00 | 0.33 | 98 | 1007.2 |
| 20260831141543 | 64 | 99 | 1.0 | 0.0 | 0.00 | 0.00 | 0.33 | 98 | 1007.3 |
| 20260831140051 | 64 | 92 | 2.0 | 0.0 | 0.00 | 0.00 | 0.33 | 98 | 1007.3 |
| 20260831134543 | 64 | 99 | 1.0 | 0.0 | 0.00 | 0.00 | 0.33 | 98 | 1007.0 |
| 20260831133043 | 64 | 89 | 1.0 | 0.0 | 0.00 | 0.00 | 0.33 | 98 | 1007.0 |
| 20260831131541 | 64 | 89 | 1.0 | 0.0 | 0.00 | 0.00 | 0.33 | 98 | 1007.2 |
| 20260831130045 | 64 | 77 | 1.0 | 0.0 | 0.00 | 0.00 | 0.33 | 98 | 1006.9 |
| 20260831124537 | 64 | 70 | 1.0 | 0.0 | 0.00 | 0.00 | 0.33 | 98 | 1006.9 |
| 20260831123040 | 64 | 48 | 1.0 | 0.0 | 0.00 | 0.00 | 0.33 | 98 | 1006.8 |
| 20260831121541 | 64 | 14 | 1.0 | 0.0 | 0.00 | 0.00 | 0.33 | 98 | 1007.2 |
| 20260831120032 | 64 | 355 | 1.0 | 0.0 | 0.00 | 0.00 | 0.33 | 98 | 1007.5 |
| 20260831114532 | 64 | 75 | 0.0 | 0.0 | 0.00 | 0.00 | 0.26 | 98 | 1008.2 |
| 20260831113032 | 64 | 75 | 2.0 | 0.0 | 0.00 | 0.00 | 0.23 | 98 | 1007.8 |
| 20260831111528 | 64 | 115 | 2.0 | 0.0 | 0.00 | 0.00 | 0.22 | 98 | 1007.4 |
| 20260831110029 | 63 | 93 | 3.0 | 0.0 | 0.00 | 0.00 | 0.22 | 98 | 1007.4 |